TimeEDT,TemperatureF,Dew PointF,Humidity,Sea Level PressureIn,VisibilityMPH,Wind Direction,Wind SpeedMPH,Gust SpeedMPH,PrecipitationIn,Events,Conditions,WindDirDegrees,DateUTC
12:53 AM,55.9,53.1,90,30.13,10.0,Calm,Calm,-,N/A,,Clear,0,2014-05-26 04:53:00
1:53 AM,55.0,53.1,93,30.13,8.0,Calm,Calm,-,N/A,,Clear,0,2014-05-26 05:53:00
2:53 AM,53.1,52.0,96,30.13,6.0,Calm,Calm,-,N/A,,Clear,0,2014-05-26 06:53:00
3:53 AM,53.1,51.1,93,30.13,6.0,Calm,Calm,-,N/A,,Clear,0,2014-05-26 07:53:00
4:53 AM,52.0,50.0,93,30.14,7.0,Calm,Calm,-,N/A,,Clear,0,2014-05-26 08:53:00
5:53 AM,51.1,48.9,92,30.14,7.0,Calm,Calm,-,N/A,,Clear,0,2014-05-26 09:53:00
6:53 AM,52.0,50.0,93,30.15,7.0,ESE,4.6,-,N/A,,Clear,120,2014-05-26 10:53:00
7:53 AM,57.0,53.1,87,30.16,10.0,Calm,Calm,-,N/A,,Clear,0,2014-05-26 11:53:00
8:53 AM,62.1,55.0,78,30.17,10.0,ESE,4.6,-,N/A,,Clear,120,2014-05-26 12:53:00
9:53 AM,70.0,57.0,63,30.14,10.0,SE,4.6,-,N/A,,Clear,130,2014-05-26 13:53:00
10:53 AM,75.9,54.0,46,30.14,10.0,SW,6.9,-,N/A,,Clear,230,2014-05-26 14:53:00
11:53 AM,77.0,52.0,42,30.13,10.0,SSW,9.2,-,N/A,,Clear,210,2014-05-26 15:53:00
12:53 PM,79.0,52.0,39,30.11,10.0,Variable,6.9,-,N/A,,Clear,0,2014-05-26 16:53:00
1:53 PM,81.0,52.0,36,30.09,10.0,SW,8.1,-,N/A,,Clear,230,2014-05-26 17:53:00
2:53 PM,82.0,51.1,34,30.07,10.0,Variable,6.9,17.3,N/A,,Clear,0,2014-05-26 18:53:00
3:53 PM,82.9,52.0,34,30.06,10.0,WSW,9.2,-,N/A,,Clear,250,2014-05-26 19:53:00
4:53 PM,84.0,52.0,33,30.04,10.0,SW,8.1,-,N/A,,Clear,220,2014-05-26 20:53:00
5:53 PM,82.9,52.0,34,30.02,10.0,Variable,6.9,-,N/A,,Scattered Clouds,0,2014-05-26 21:53:00
6:53 PM,82.0,55.0,39,30.00,10.0,Variable,6.9,-,N/A,,Clear,0,2014-05-26 22:53:00
7:53 PM,79.0,57.0,47,30.00,10.0,South,3.5,-,N/A,,Clear,190,2014-05-26 23:53:00
8:53 PM,73.0,59.0,61,30.00,10.0,Calm,Calm,-,N/A,,Clear,0,2014-05-27 00:53:00
9:53 PM,70.0,61.0,73,30.00,10.0,ESE,3.5,-,N/A,,Scattered Clouds,120,2014-05-27 01:53:00
10:53 PM,68.0,61.0,78,30.01,10.0,ESE,3.5,-,N/A,,Clear,120,2014-05-27 02:53:00
11:53 PM,66.9,61.0,81,30.01,9.0,Calm,Calm,-,N/A,,Clear,0,2014-05-27 03:53:00